Stations météo

Publicité
Nevers, France (7260): Température de l'air & dewpoint: 10.02.2019 18:00:00 - 16.02.2019 18:00:00 (CET)Nevers, France (7260): Température de l'air 5cm: 10.02.2019 18:00:00 - 16.02.2019 18:00:00 (CET)Nevers, France (7260): Température de l'air -20cm & Température de l'air -100cm: 10.02.2019 18:00:00 - 16.02.2019 18:00:00 (CET)Nevers, France (7260): Vitesse du vent & gusts: 10.02.2019 18:00:00 - 16.02.2019 18:00:00 (CET)Nevers, France (7260): Direction du vent: 10.02.2019 18:00:00 - 16.02.2019 18:00:00 (CET)Nevers, France (7260): reduced air pressure: 10.02.2019 18:00:00 - 16.02.2019 18:00:00 (CET)Nevers, France (7260): visibility: 10.02.2019 18:00:00 - 16.02.2019 18:00:00 (CET)Nevers, France (7260): Ensoleillement: 10.02.2019 18:00:00 - 16.02.2019 18:00:00 (CET)Nevers, France (7260): Quantités de précipitations: 10.02.2019 18:00:00 - 16.02.2019 18:00:00 (CET)
Date & Time tt [°C] td [°C] tt 5cm [°C] tt -20cm [°C] tt -100cm [°C] ff [km/h] ff [knt] fx [km/h] fx [knt] dd ppp [hPa] vv [km] sd [min] rr [mm]
16.02.2019 18:00:00 13,3 1,3 10,2 5,0 7,7 9 5 13 7 SE 1025,5 20 44 0,0
16.02.2019 17:00:00 17,8 -3,6 22,6 4,9 7,7 4 2 8 5 SSE 1025,4 20 60 0,0
16.02.2019 16:00:00 18,5 -3,6 25,0 4,8 7,7 4 2 9 5 S 1025,8 20 60 0,0
16.02.2019 15:00:00 17,3 -5,9 21,2 4,8 7,7 4 2 11 6 SE 1026,3 20 60 0,0
16.02.2019 14:00:00 15,3 0,3 16,9 4,8 7,7 6 4 11 6 E 1027,3 19 60 0,0
16.02.2019 13:00:00 14,5 0,0 16,3 4,8 7,7 3 2 10 5 SSE 1028,0 20 60 0,0
16.02.2019 12:00:00 11,8 1,1 15,1 4,9 7,7 5 3 9 5 ESE 1028,8 19 60 0,0
16.02.2019 11:00:00 8,6 1,3 10,5 4,9 7,7 5 3 14 8 ESE 1029,1 15 60 0,0
16.02.2019 10:00:00 6,0 2,3 2,3 5,0 7,7 4 2 11 6 ESE 1029,3 11 60 0,0
16.02.2019 09:00:00 -0,8 -1,5 -7,1 5,0 7,7 2 1 6 4 E 1030,0 8 41 0,0
16.02.2019 08:00:00 -4,2 -4,9 -8,0 5,1 7,7 0 0 5 3 N 1029,8 5 0 0,0
16.02.2019 07:00:00 -3,4 -4,1 -7,3 5,1 7,7 0 0 5 3 N 1029,6 5 0 0,0
16.02.2019 06:00:00 -3,1 -3,8 -7,4 5,2 7,7 0 0 5 3 N 1029,5 4,7 0 0,0
16.02.2019 05:00:00 -2,9 -3,6 -6,9 5,3 7,7 5 3 6 4 E 1029,3 8 0 0,0
16.02.2019 04:00:00 -2,7 -3,5 -6,8 5,3 7,7 2 1 4 2 E 1029,4 6 0 0,0
16.02.2019 03:00:00 -2,1 -2,9 -6,0 5,3 7,7 0 0 4 2 N 1029,3 7 0 0,0
16.02.2019 02:00:00 -1,6 -2,6 -5,2 5,4 7,7 0 0 4 2 N 1029,2 9 0 0,0
16.02.2019 01:00:00 -0,7 -1,8 -4,7 5,4 7,7 3 2 9 5 ESE 1029,0 8 0 0,0
16.02.2019 00:00:00 -0,6 -1,9 -4,6 5,4 7,7 0 0 3 2 N 1028,8 9 0 0,0
15.02.2019 23:00:00 0,9 -0,6 -3,2 5,4 7,7 0 0 5 3 N 1028,6 12 0 0,0
15.02.2019 22:00:00 2,2 -0,2 -2,6 5,3 7,7 0 0 8 4 N 1028,2 14 0 0,0
15.02.2019 21:00:00 4,5 1,5 -2,3 5,2 7,7 4 2 6 3 ESE 1027,9 16 0 0,0
15.02.2019 20:00:00 5,1 1,8 -1,4 5,2 7,7 0 0 3 2 N 1027,9 18 0 0,0
15.02.2019 19:00:00 7,1 2,4 -0,3 5,1 7,7 0 0 6 4 N 1027,8 20 0 0,0
15.02.2019 18:00:00 13,5 3,6 9,1 5,0 7,7 6 4 16 9 SE 1027,1 20 43 0,0
15.02.2019 17:00:00 16,9 1,7 19,4 4,9 7,7 10 6 18 10 SE 1027,0 20 60 0,0
15.02.2019 16:00:00 17,1 1,9 20,8 4,8 7,7 11 6 22 12 ESE 1027,3 20 60 0,0
15.02.2019 15:00:00 16,8 1,6 20,5 4,8 7,7 11 6 23 12 SE 1027,8 20 60 0,0
15.02.2019 14:00:00 15,5 1,2 15,9 4,8 7,8 15 8 24 13 ESE 1028,7 20 60 0,0
15.02.2019 13:00:00 13,9 1,5 15,4 4,8 7,7 17 9 25 14 ESE 1029,7 20 60 0,0
15.02.2019 12:00:00 11,8 0,8 13,9 4,8 7,7 16 9 29 16 SE 1030,4 19 60 0,0
15.02.2019 11:00:00 10,1 1,5 10,9 4,9 7,7 15 8 24 13 SE 1030,6 20 60 0,0
15.02.2019 10:00:00 7,4 0,6 6,2 4,9 7,7 13 7 18 10 SE 1030,9 18 60 0,0
15.02.2019 09:00:00 5,0 0,4 -0,1 4,9 7,7 12 7 20 11 SE 1031,0 18 39 0,0
15.02.2019 08:00:00 2,2 1,0 -6,8 5,0 7,7 12 6 20 11 ESE 1031,0 20 0 0,0
15.02.2019 07:00:00 -2,4 -3,8 -6,3 5,0 7,8 0 0 4 2 N 1031,4 12 0 0,0
15.02.2019 06:00:00 -1,1 -3,1 -5,2 5,1 7,8 2 1 9 5 SE 1031,4 12 0 0,0
15.02.2019 05:00:00 0,2 -2,7 -4,4 5,1 7,7 3 1 9 5 SSE 1030,7 18 0 0,0
15.02.2019 04:00:00 1,0 -1,7 -3,9 5,1 7,8 0 0 5 3 N 1031,1 17 0 0,0
15.02.2019 03:00:00 3,2 -0,8 -3,5 5,1 7,8 0 0 8 5 N 1031,3 12 0 0,0
15.02.2019 02:00:00 5,1 0,7 -3,4 5,1 7,8 9 5 14 8 ESE 1031,4 18 0 0,0
15.02.2019 01:00:00 1,9 -0,7 -2,5 5,1 7,8 2 1 8 4 SSE 1031,7 13 0 0,0
15.02.2019 00:00:00 4,1 0,4 -1,2 5,1 7,8 4 2 12 7 SW 1031,3 15 0 0,0
14.02.2019 23:00:00 7,6 1,0 -0,9 5,0 7,8 9 5 19 10 SE 1031,0 20 0 0,0
14.02.2019 22:00:00 5,7 0,5 0,1 5,0 7,8 0 0 19 11 N 1031,0 20 0 0,0
14.02.2019 21:00:00 8,7 0,9 5,8 4,9 7,8 10 6 21 11 E 1030,7 20 0 0,0
14.02.2019 20:00:00 9,9 1,3 4,2 4,8 7,8 13 7 27 15 ESE 1030,7 20 0 0,0
14.02.2019 19:00:00 9,9 1,5 2,2 4,8 7,8 7 4 16 9 ESE 1030,7 20 0 0,0
14.02.2019 18:00:00 12,7 1,1 9,0 4,7 7,8 9 5 14 7 ESE 1030,4 20 41 0,0
14.02.2019 17:00:00 15,6 0,6 17,3 4,6 7,8 8 4 20 11 ESE 1030,4 20 60 0,0
14.02.2019 16:00:00 16,0 1,3 19,3 4,5 7,8 11 6 21 11 ESE 1031,0 20 60 0,0
14.02.2019 15:00:00 15,7 -0,1 19,7 4,5 7,8 14 8 23 12 ESE 1031,7 20 60 0,0
14.02.2019 14:00:00 14,6 0,8 15,4 4,5 7,8 13 7 20 11 SE 1032,3 20 60 0,0
14.02.2019 13:00:00 13,1 0,8 14,9 4,5 7,8 9 5 18 10 ESE 1033,3 20 60 0,0
14.02.2019 12:00:00 10,4 2,0 12,1 4,5 7,8 12 7 19 10 ESE 1034,1 20 60 0,0
14.02.2019 11:00:00 7,4 1,0 8,1 4,5 7,8 13 7 19 11 ESE 1034,5 18 60 0,0
14.02.2019 10:00:00 4,6 0,2 3,9 4,6 7,8 12 7 19 10 ESE 1034,8 13 60 0,0
14.02.2019 09:00:00 2,5 -0,3 -0,7 4,6 7,8 4 2 20 11 ESE 1035,1 9 38 0,0
14.02.2019 08:00:00 0,7 -1,1 -2,6 4,6 7,7 13 7 16 9 ESE 1035,0 8 0 0,0
14.02.2019 07:00:00 0,9 -1,3 -1,9 4,7 7,8 8 4 18 10 ESE 1034,8 9 0 0,0
14.02.2019 06:00:00 0,8 -1,1 -3,2 4,7 7,8 7 4 12 7 ESE 1034,9 10 0 0,0
14.02.2019 05:00:00 0,4 -1,5 -1,8 4,8 7,8 7 4 17 9 ESE 1034,7 8 0 0,0
14.02.2019 04:00:00 1,1 -1,3 -3,6 4,8 7,8 9 5 19 10 ESE 1034,8 9 0 0,0
14.02.2019 03:00:00 -0,2 -2,4 -3,2 4,8 7,8 6 3 14 8 SE 1035,3 8 0 0,0
14.02.2019 02:00:00 1,5 -1,1 -5,5 4,8 7,8 10 5 14 8 ESE 1035,0 11 0 0,0
14.02.2019 01:00:00 -1,1 -3,1 -5,3 4,9 7,8 0 0 8 4 N 1035,4 11 0 0,0
14.02.2019 00:00:00 1,9 -2,1 -3,2 4,9 7,8 6 4 14 7 SE 1034,7 19 0 0,0
13.02.2019 23:00:00 1,6 -0,7 -5,0 4,9 7,8 6 3 10 5 SE 1034,4 19 0 0,0
13.02.2019 22:00:00 -0,4 -2,3 -4,4 4,9 7,8 5 3 7 4 SE 1034,7 18 0 0,0
13.02.2019 21:00:00 0,2 -3,4 -3,8 4,9 7,8 0 0 4 2 N 1034,6 20 0 0,0
13.02.2019 20:00:00 1,4 -1,7 -3,5 4,8 7,8 3 1 4 2 N 1034,5 20 0 0,0
13.02.2019 19:00:00 3,4 -1,6 -1,0 4,8 7,8 3 2 12 7 ESE 1034,2 20 0 0,0
13.02.2019 18:00:00 8,0 -0,5 4,3 4,7 7,8 4 2 18 10 ESE 1033,5 20 39 0,0
13.02.2019 17:00:00 10,5 -0,1 12,1 4,7 7,8 12 6 22 12 SE 1033,2 20 60 0,0
13.02.2019 16:00:00 11,1 -0,7 13,3 4,7 7,8 13 7 22 12 E 1033,4 20 60 0,0
13.02.2019 15:00:00 9,4 2,0 13,5 4,7 7,8 11 6 26 14 ESE 1034,0 20 60 0,0
13.02.2019 14:00:00 8,1 2,1 10,2 4,8 7,8 16 8 25 13 SE 1034,7 20 60 0,0
13.02.2019 13:00:00 7,5 2,0 9,8 4,8 7,8 13 7 20 11 SE 1035,4 20 60 0,0
13.02.2019 12:00:00 6,2 1,3 9,4 4,9 7,8 9 5 15 8 ESE 1036,0 20 60 0,0
13.02.2019 11:00:00 4,3 1,2 7,2 4,9 7,8 11 6 15 8 SE 1036,3 20 60 0,0
13.02.2019 10:00:00 1,4 0,7 -0,1 5,0 7,8 0 0 3 2 N 1036,7 10 60 0,0
13.02.2019 09:00:00 -2,3 -2,9 -8,2 5,1 7,8 0 0 5 3 N 1037,2 9 36 0,0
13.02.2019 08:00:00 -5,9 -6,6 -8,7 5,2 7,8 4 2 5 3 NNW 1037,6 12 0 0,0
13.02.2019 07:00:00 -4,3 -4,8 -8,0 5,2 7,8 3 2 9 5 E 1037,2 7 0 0,0
13.02.2019 06:00:00 -4,1 -4,6 -7,8 5,3 7,8 3 2 6 3 SSE 1037,0 9 0 0,0
13.02.2019 05:00:00 -4,8 -5,3 -8,0 5,4 7,7 0 0 2 1 N 1037,0 4,8 0 0,0
13.02.2019 04:00:00 -4,5 -5,0 -7,4 5,4 7,7 0 0 3 2 N 1037,1 12 0 0,0
13.02.2019 03:00:00 -4,0 -4,5 -7,0 5,5 7,7 0 0 3 2 N 1037,2 8 0 0,0
13.02.2019 02:00:00 -3,4 -4,1 -6,4 5,5 7,7 0 0 5 3 N 1037,4 7 0 0,0
13.02.2019 01:00:00 -2,4 -3,0 -6,2 5,6 7,8 0 0 6 3 N 1037,4 6 0 0,0
13.02.2019 00:00:00 -2,9 -3,6 -5,4 5,6 7,7 0 0 2 1 N 1037,6 8 0 0,0
12.02.2019 23:00:00 -2,0 -2,8 -5,7 5,6 7,7 0 0 3 2 N 1037,7 7 0 0,0
12.02.2019 22:00:00 -1,5 -2,5 -4,6 5,6 7,7 2 1 7 4 ESE 1037,7 6 0 0,0
12.02.2019 21:00:00 -0,6 -1,6 -4,2 5,6 7,7 0 0 0 0 N 1037,6 9 0 0,0
12.02.2019 20:00:00 0,0 -1,4 -2,9 5,6 7,7 0 0 3 1 N 1037,5 18 0 0,0
12.02.2019 19:00:00 1,9 0,0 -1,3 5,6 7,8 0 0 4 2 N 1037,1 20 0 0,0
12.02.2019 18:00:00 6,6 1,1 3,5 5,6 7,7 0 0 5 3 N 1036,4 20 36 0,0
12.02.2019 17:00:00 8,4 1,8 11,3 5,5 7,7 0 0 7 4 N 1036,2 20 60 0,0
12.02.2019 16:00:00 8,5 2,7 11,7 5,5 7,7 2 1 8 4 SSW 1036,5 20 60 0,0
12.02.2019 15:00:00 6,9 4,9 8,7 5,5 7,7 4 2 13 7 SSE 1036,9 18 24 0,0
12.02.2019 14:00:00 4,8 4,1 7,8 5,6 7,7 7 4 12 6 ESE 1037,5 15 4 0,0
12.02.2019 13:00:00 3,7 3,3 5,6 5,6 7,7 5 3 11 6 S 1038,1 11 24 0,0
12.02.2019 12:00:00 1,8 1,4 3,3 5,7 7,7 3 2 10 5 SSE 1038,7 1,0 9 0,0
12.02.2019 11:00:00 0,7 0,3 1,3 5,7 7,7 7 4 10 6 SSE 1038,3 0,4 10 0,0
12.02.2019 10:00:00 -0,7 -1,1 -0,9 5,8 7,7 4 2 7 4 S 1038,6 0,2 8 0,0
12.02.2019 09:00:00 -1,7 -2,1 -5,3 5,9 7,7 5 3 8 4 S 1038,2 0,7 4 0,0
12.02.2019 08:00:00 -3,8 -4,2 -6,5 5,9 7,7 0 0 3 2 N 1037,3 12 0 0,0
12.02.2019 07:00:00 -3,2 -3,6 -5,9 6,0 7,7 2 1 4 2 S 1036,7 9 0 0,0
12.02.2019 06:00:00 -2,0 -2,4 -4,1 6,0 7,7 0 0 3 2 N 1036,3 2,8 0 0,0
12.02.2019 05:00:00 -2,5 -2,9 -4,2 6,1 7,7 0 0 4 2 N 1036,3 0,2 0 0,0
12.02.2019 04:00:00 -2,3 -2,7 -3,4 6,2 7,7 0 0 3 2 N 1036,2 0,2 0 0,0
12.02.2019 03:00:00 -2,4 -2,8 -4,4 6,2 7,7 0 0 2 1 N 1036,0 0,2 0 0,0
12.02.2019 02:00:00 -2,6 -3,2 -4,2 6,3 7,7 0 0 4 2 N 1035,8 0,3 0 0,0
12.02.2019 01:00:00 -1,7 -2,3 -4,8 6,3 7,7 0 0 3 2 N 1035,7 0,2 0 0,0
12.02.2019 00:00:00 -1,3 -2,0 -4,4 6,4 7,7 0 0 4 2 N 1035,1 7 0 0,0
11.02.2019 23:00:00 -1,0 -1,8 -3,3 6,4 7,7 3 1 4 2 SSE 1034,4 7 0 0,0
11.02.2019 22:00:00 0,8 -0,2 -2,4 6,4 7,7 0 0 3 1 N 1033,7 12 0 0,0
11.02.2019 21:00:00 1,7 0,4 -2,1 6,4 7,7 0 0 7 4 N 1032,9 18 0 0,0
11.02.2019 20:00:00 4,8 2,7 0,9 6,3 7,7 0 0 14 8 N 1031,8 20 0 0,0
11.02.2019 19:00:00 6,3 3,5 4,1 6,3 7,7 16 9 25 13 WNW 1030,6 20 0 0,0
11.02.2019 18:00:00 6,3 3,8 5,2 6,3 7,7 9 5 24 13 NW 1029,5 20 6 0,0
11.02.2019 17:00:00 7,6 4,5 6,4 6,3 7,7 15 8 34 18 NW 1028,6 19 9 0,0
11.02.2019 16:00:00 8,8 4,8 7,8 6,2 7,7 16 9 29 16 NW 1027,3 20 9 0,0
11.02.2019 15:00:00 9,3 4,7 8,8 6,2 7,7 17 9 34 19 W 1026,7 20 14 0,0
11.02.2019 14:00:00 8,5 3,9 8,3 6,2 7,7 23 13 38 20 W 1026,3 20 28 0,0
11.02.2019 13:00:00 7,1 3,5 8,1 6,2 7,6 19 10 30 16 W 1026,2 20 1 0,0
11.02.2019 12:00:00 7,0 4,1 5,0 6,3 7,7 16 9 29 15 WSW 1026,0 20 32 0,0
11.02.2019 11:00:00 5,0 2,9 5,6 6,3 7,6 13 7 24 13 W 1025,5 20 0 0,0
11.02.2019 10:00:00 4,7 2,2 3,6 6,4 7,6 10 5 25 14 W 1025,0 20 44 0,0
11.02.2019 09:00:00 3,5 1,5 2,4 6,4 7,7 14 8 25 13 W 1024,1 20 12 0,0
11.02.2019 08:00:00 3,5 1,4 2,5 6,4 7,6 13 7 21 12 WSW 1023,2 20 0 0,0
11.02.2019 07:00:00 3,4 1,3 2,0 6,5 7,6 11 6 25 14 W 1022,5 20 0 0,0
11.02.2019 06:00:00 3,3 1,0 1,7 6,6 7,6 13 7 28 15 W 1021,9 20 0 0,0
11.02.2019 05:00:00 3,2 1,1 1,5 6,6 7,6 9 5 26 14 W 1021,0 20 0 0,0
11.02.2019 04:00:00 3,6 1,1 2,1 6,6 7,6 15 8 26 14 W 1020,6 20 0 0,0
11.02.2019 03:00:00 4,2 1,4 2,6 6,6 7,6 14 8 25 14 W 1020,3 20 0 0,0
11.02.2019 02:00:00 4,5 1,2 3,4 6,7 7,6 13 7 27 15 W 1019,6 20 0 0,0
11.02.2019 01:00:00 4,9 1,4 3,5 6,7 7,6 18 10 34 18 W 1018,8 20 0 0,0
11.02.2019 00:00:00 5,2 1,3 4,1 6,7 7,6 23 13 40 22 W 1017,7 20 0 0,0
10.02.2019 23:00:00 5,5 2,5 3,5 6,7 7,6 18 10 49 26 WSW 1016,7 20 0 0,2
10.02.2019 22:00:00 6,5 3,5 4,9 6,7 7,6 16 9 32 18 WSW 1015,9 20 0 0,0
10.02.2019 21:00:00 6,1 2,7 4,7 6,7 7,6 15 8 45 24 WSW 1015,5 20 0 0,0
10.02.2019 20:00:00 6,4 2,8 4,8 6,7 7,6 21 11 49 27 W 1014,3 20 0 0,0
10.02.2019 19:00:00 6,9 3,3 5,3 6,7 7,6 17 9 48 26 WSW 1012,5 20 0 0,0
10.02.2019 18:00:00 7,7 2,6 6,4 6,7 7,6 40 22 65 35 WSW 1011,5 20 23 0,0

tt = Température de l'air
td = dewpoint
tt 5cm = Température de l'air 5cm
tt -20cm = Température de l'air -20cm
tt -100cm = Température de l'air -100cm
ff = Vitesse du vent
fx = gusts
dd = Direction du vent
ppp = reduced air pressure
vv = visibility
sd = Ensoleillement
rr = Quantités de précipitations

stations d'obs. à proximité